EST,Max TemperatureF,Mean TemperatureF,Min TemperatureF,Max Dew PointF,MeanDew PointF,Min DewpointF,Max Humidity, Mean Humidity, Min Humidity, Max Sea Level PressureIn, Mean Sea Level PressureIn, Min Sea Level PressureIn, Max VisibilityMiles, Mean VisibilityMiles, Min VisibilityMiles, Max Wind SpeedMPH, Mean Wind SpeedMPH, Max Gust SpeedMPH,PrecipitationIn, CloudCover, Events, WindDirDegrees
2011-11-1,61,49,37,49,42,35,93,66,39,30.36,30.27,30.20,10,10,8,20,6,28,0.10,4,Rain,357
2011-11-2,64,49,34,41,36,32,92,64,36,30.44,30.36,30.31,10,10,6,12,1,16,0.00,0,,47
2011-11-3,65,50,34,48,40,32,92,68,43,30.29,30.13,29.96,10,10,8,12,4,17,0.00,0,,170
2011-11-4,57,48,38,50,41,27,100,71,42,30.17,29.96,29.89,10,6,0,23,9,30,0.01,6,Fog-Rain,23
2011-11-5,55,45,35,38,32,26,92,69,46,30.49,30.37,30.19,10,10,10,21,10,26,0.00,0,,31
2011-11-6,60,49,38,43,39,36,89,68,46,30.56,30.48,30.43,10,10,10,9,3,12,0.00,5,,43
2011-11-7,67,51,34,50,40,32,100,76,52,30.42,30.37,30.31,10,6,0,9,2,13,0.00,2,Fog,239
2011-11-8,71,53,34,48,39,32,100,69,37,30.31,30.28,30.22,10,7,0,15,0,29,0.00,2,Fog,173
2011-11-9,72,54,36,58,47,34,100,75,49,30.22,30.14,29.99,10,4,0,10,3,13,0.00,5,Fog,111
2011-11-10,68,57,46,59,52,36,100,83,66,29.98,29.86,29.75,10,4,0,25,7,31,0.03,8,Fog-Rain,324
2011-11-11,51,41,31,34,27,23,85,61,36,30.16,29.94,29.76,10,10,10,25,11,38,0.00,1,,283
2011-11-12,62,45,28,39,32,24,85,59,32,30.23,30.19,30.14,10,10,10,21,7,28,0.00,0,,202
2011-11-13,66,57,47,44,38,32,71,51,30,30.22,30.14,30.06,10,10,10,28,13,33,0.00,0,,202
2011-11-14,73,66,59,54,51,47,75,61,46,30.07,29.97,29.88,10,10,10,23,14,33,0.00,0,,207
2011-11-15,71,64,56,57,54,50,86,71,56,29.99,29.92,29.86,10,10,10,20,7,28,0.00,4,,229
2011-11-16,70,64,57,67,60,54,93,87,80,29.93,29.81,29.72,10,7,1,23,7,28,0.55,8,Rain,259
2011-11-17,57,47,36,54,41,27,93,75,57,30.22,29.94,29.81,10,9,5,26,9,32,0.28,7,Rain,318
2011-11-18,47,38,29,27,23,20,85,61,37,30.51,30.43,30.24,10,10,10,16,6,22,0.00,0,,299
2011-11-19,60,44,28,48,36,23,93,70,47,30.50,30.42,30.31,10,10,10,17,5,21,0.00,0,,181
2011-11-20,68,57,46,56,51,46,93,76,58,30.31,30.24,30.16,10,10,9,20,6,25,0.00,1,,212
2011-11-21,65,61,56,58,55,52,90,84,78,30.27,30.22,30.13,10,6,2,13,5,16,0.08,8,Rain,61
2011-11-22,66,61,55,61,56,52,93,89,84,30.28,30.17,29.91,10,7,2,16,8,21,0.02,7,Rain,118
2011-11-23,69,58,47,64,55,34,93,77,60,30.04,29.73,29.59,10,9,2,28,16,36,0.64,7,Rain,250
2011-11-24,58,48,38,38,34,31,82,61,40,30.29,30.23,30.08,10,10,10,21,7,28,0.00,0,,308
2011-11-25,67,51,35,43,37,32,89,59,29,30.31,30.25,30.21,10,10,10,10,2,13,0.00,0,,219
2011-11-26,69,51,33,47,39,30,89,63,37,30.29,30.24,30.21,10,10,10,8,1,13,0.00,0,,203
2011-11-27,72,59,45,52,49,42,93,69,44,30.23,30.19,30.15,10,10,10,22,9,26,0.00,0,,179
2011-11-28,74,67,59,61,55,51,93,71,49,30.17,30.11,30.02,10,10,2,16,7,22,0.01,7,,145
2011-11-29,74,61,48,63,53,45,96,80,64,30.00,29.82,29.74,10,8,2,24,10,35,0.59,7,Rain,179
2011-11-30,54,49,43,44,36,30,86,67,48,30.07,29.85,29.74,10,10,10,18,10,24,0.00,4,,256